• In Germany
  • List of Countries
  • For 7 days
  • Water Temperature
  • Satellite Maps
  • Weather Map
  • Weather Widgets
  • user-avatar
    Login

    Hourly Weather Ruse

    Today, 25 September, Monday

    Time Temperature Precipitation Wind Pressure Humidity
    00:00 +17°C° 0 mm 2 mps 759 mmHg 51%
    01:00 +17°C° 0 mm 2 mps 759 mmHg 52%
    02:00 +17°C° 0 mm 2 mps 759 mmHg 53%
    03:00 +16°C° 0 mm 2 mps 759 mmHg 54%
    04:00 +16°C° 0 mm 2 mps 759 mmHg 56%
    05:00 +16°C° 0 mm 2 mps 759 mmHg 57%
    06:00 +17°C° 0 mm 2 mps 759 mmHg 55%
    07:00 +18°C° 0 mm 2 mps 759 mmHg 53%
    08:00 +18°C° 0 mm 2 mps 759 mmHg 51%
    09:00 +20°C° 0 mm 2 mps 759 mmHg 46%
    10:00 +22°C° 0 mm 3 mps 759 mmHg 42%
    11:00 +24°C° 0 mm 3 mps 759 mmHg 38%
    12:00 +25°C° 0 mm 4 mps 759 mmHg 36%
    13:00 +26°C° 0 mm 4 mps 759 mmHg 35%
    14:00 +27°C° 0 mm 4 mps 759 mmHg 33%
    15:00 +26°C° 0 mm 4 mps 758 mmHg 35%
    16:00 +26°C° 0 mm 4 mps 758 mmHg 37%
    17:00 +25°C° 0 mm 4 mps 758 mmHg 39%
    18:00 +23°C° 0 mm 4 mps 758 mmHg 44%
    19:00 +22°C° 0 mm 3 mps 759 mmHg 48%
    20:00 +21°C° 0 mm 3 mps 759 mmHg 53%
    21:00 +20°C° 0 mm 3 mps 759 mmHg 58%
    22:00 +19°C° 0 mm 3 mps 759 mmHg 63%
    23:00 +18°C° 0 mm 2 mps 759 mmHg 69%

    Tomorrow, 26 September, Tuesday

    Time Temperature Precipitation Wind Pressure Humidity
    00:00 +18°C° 0 mm 2 mps 759 mmHg 74%
    01:00 +17°C° 0 mm 2 mps 759 mmHg 79%
    02:00 +16°C° 0 mm 2 mps 758 mmHg 84%
    03:00 +16°C° 0 mm 2 mps 758 mmHg 84%
    04:00 +16°C° 0 mm 2 mps 758 mmHg 85%
    05:00 +16°C° 0 mm 2 mps 758 mmHg 86%
    06:00 +16°C° 0 mm 2 mps 758 mmHg 81%
    07:00 +17°C° 0 mm 3 mps 758 mmHg 77%
    08:00 +18°C° 0 mm 3 mps 759 mmHg 72%
    09:00 +20°C° 0 mm 3 mps 759 mmHg 66%
    10:00 +21°C° 0 mm 4 mps 759 mmHg 61%
    11:00 +23°C° 0 mm 4 mps 759 mmHg 55%
    12:00 +23°C° 0.2 mm 5 mps 759 mmHg 54%
    13:00 +25°C° 0.2 mm 5 mps 758 mmHg 53%
    14:00 +24°C° 0.2 mm 6 mps 758 mmHg 52%
    15:00 +23°C° 1.1 mm 6 mps 758 mmHg 57%
    16:00 +23°C° 1.1 mm 6 mps 758 mmHg 61%
    17:00 +22°C° 1.1 mm 6 mps 758 mmHg 66%
    18:00 +21°C° 0.5 mm 6 mps 759 mmHg 69%
    19:00 +20°C° 0.5 mm 6 mps 759 mmHg 72%
    20:00 +19°C° 0.5 mm 5 mps 760 mmHg 74%
    21:00 +19°C° 0.1 mm 5 mps 760 mmHg 73%
    22:00 +17°C° 0.1 mm 5 mps 760 mmHg 72%
    23:00 +17°C° 0.1 mm 5 mps 760 mmHg 71%

    Day after tomorrow, 27 September, Wednesday

    Time Temperature Precipitation Wind Pressure Humidity
    00:00 +16°C° 0.1 mm 5 mps 760 mmHg 69%
    01:00 +16°C° 0.1 mm 5 mps 761 mmHg 68%
    02:00 +15°C° 0.1 mm 4 mps 761 mmHg 66%
    03:00 +15°C° 0.1 mm 4 mps 761 mmHg 65%
    04:00 +15°C° 0.1 mm 4 mps 761 mmHg 64%
    05:00 +14°C° 0.1 mm 4 mps 761 mmHg 63%
    06:00 +15°C° 0.1 mm 4 mps 761 mmHg 63%
    07:00 +15°C° 0.1 mm 5 mps 762 mmHg 62%
    08:00 +15°C° 0.1 mm 5 mps 762 mmHg 61%
    09:00 +16°C° 0 mm 5 mps 762 mmHg 60%
    10:00 +17°C° 0 mm 5 mps 763 mmHg 58%
    11:00 +19°C° 0 mm 5 mps 763 mmHg 56%
    12:00 +20°C° 0 mm 5 mps 763 mmHg 56%
    13:00 +20°C° 0 mm 5 mps 763 mmHg 55%
    14:00 +20°C° 0 mm 5 mps 763 mmHg 54%
    15:00 +20°C° 0 mm 5 mps 763 mmHg 54%
    16:00 +20°C° 0 mm 4 mps 763 mmHg 54%
    17:00 +20°C° 0 mm 4 mps 763 mmHg 54%
    18:00 +19°C° 0 mm 3 mps 764 mmHg 57%
    19:00 +18°C° 0 mm 3 mps 764 mmHg 61%
    20:00 +16°C° 0 mm 3 mps 764 mmHg 64%
    21:00 +16°C° 0 mm 2 mps 764 mmHg 68%
    22:00 +15°C° 0 mm 2 mps 764 mmHg 71%
    23:00 +14°C° 0 mm 2 mps 765 mmHg 74%

    28 September, Thursday

    Time Temperature Precipitation Wind Pressure Humidity
    00:00 +14°C° 0 mm 2 mps 765 mmHg 75%
    01:00 +13°C° 0 mm 2 mps 765 mmHg 77%
    02:00 +12°C° 0 mm 2 mps 765 mmHg 78%
    03:00 +12°C° 0 mm 2 mps 764 mmHg 76%
    04:00 +12°C° 0 mm 2 mps 764 mmHg 74%
    05:00 +12°C° 0 mm 2 mps 764 mmHg 72%
    06:00 +12°C° 0 mm 3 mps 765 mmHg 68%
    07:00 +13°C° 0 mm 3 mps 765 mmHg 65%
    08:00 +13°C° 0 mm 4 mps 765 mmHg 62%
    09:00 +14°C° 0 mm 4 mps 765 mmHg 59%
    10:00 +15°C° 0 mm 4 mps 765 mmHg 56%
    11:00 +17°C° 0 mm 5 mps 765 mmHg 53%
    12:00 +17°C° 0 mm 5 mps 764 mmHg 50%
    13:00 +19°C° 0 mm 5 mps 764 mmHg 48%
    14:00 +19°C° 0 mm 5 mps 764 mmHg 46%
    15:00 +19°C° 0 mm 4 mps 764 mmHg 47%
    16:00 +19°C° 0 mm 4 mps 764 mmHg 48%
    17:00 +18°C° 0 mm 4 mps 764 mmHg 48%
    18:00 +17°C° 0 mm 3 mps 764 mmHg 51%
    19:00 +16°C° 0 mm 3 mps 764 mmHg 54%
    20:00 +14°C° 0 mm 3 mps 764 mmHg 57%
    21:00 +13°C° 0 mm 3 mps 764 mmHg 60%
    22:00 +13°C° 0 mm 3 mps 765 mmHg 64%
    23:00 +12°C° 0 mm 3 mps 765 mmHg 67%

    29 September, Friday

    Time Temperature Precipitation Wind Pressure Humidity
    00:00 +11°C° 0 mm 3 mps 764 mmHg 68%
    01:00 +11°C° 0 mm 3 mps 764 mmHg 70%
    02:00 +10°C° 0 mm 2 mps 764 mmHg 71%
    03:00 +10°C° 0 mm 2 mps 764 mmHg 69%
    04:00 +10°C° 0 mm 2 mps 764 mmHg 68%
    05:00 +9°C° 0 mm 2 mps 764 mmHg 66%
    06:00 +10°C° 0 mm 3 mps 764 mmHg 62%
    07:00 +11°C° 0 mm 3 mps 764 mmHg 58%
    08:00 +11°C° 0 mm 3 mps 764 mmHg 54%
    09:00 +13°C° 0 mm 4 mps 764 mmHg 51%
    10:00 +14°C° 0 mm 4 mps 763 mmHg 49%
    11:00 +15°C° 0 mm 4 mps 763 mmHg 46%
    12:00 +17°C° 0 mm 4 mps 763 mmHg 43%
    13:00 +18°C° 0 mm 4 mps 762 mmHg 41%
    14:00 +19°C° 0 mm 4 mps 762 mmHg 38%
    15:00 +19°C° 0 mm 4 mps 761 mmHg 39%
    16:00 +18°C° 0 mm 4 mps 761 mmHg 39%
    17:00 +18°C° 0 mm 3 mps 761 mmHg 40%
    18:00 +17°C° 0 mm 3 mps 761 mmHg 43%
    19:00 +15°C° 0 mm 2 mps 762 mmHg 46%
    20:00 +14°C° 0 mm 2 mps 762 mmHg 49%
    21:00 +13°C° 0 mm 2 mps 762 mmHg 51%
    22:00 +12°C° 0 mm 1 mps 762 mmHg 53%
    23:00 +12°C° 0 mm 1 mps 761 mmHg 55%

    30 September, Saturday

    Time Temperature Precipitation Wind Pressure Humidity
    00:00 +11°C° 0 mm 1 mps 761 mmHg 58%
    01:00 +10°C° 0 mm 1 mps 761 mmHg 61%
    02:00 +10°C° 0 mm 1 mps 761 mmHg 64%
    03:00 +9°C° 0 mm 1 mps 761 mmHg 65%
    04:00 +9°C° 0 mm 1 mps 761 mmHg 66%
    05:00 +9°C° 0 mm 1 mps 761 mmHg 67%
    06:00 +9°C° 0 mm 1 mps 761 mmHg 62%
    07:00 +9°C° 0 mm 2 mps 761 mmHg 57%
    08:00 +10°C° 0 mm 2 mps 761 mmHg 52%
    09:00 +13°C° 0 mm 2 mps 760 mmHg 46%
    10:00 +14°C° 0 mm 3 mps 760 mmHg 39%
    11:00 +16°C° 0 mm 3 mps 760 mmHg 33%
    12:00 +17°C° 0 mm 3 mps 759 mmHg 30%
    13:00 +18°C° 0 mm 3 mps 759 mmHg 28%
    14:00 +19°C° 0 mm 3 mps 758 mmHg 26%
    15:00 +18°C° 0 mm 3 mps 758 mmHg 26%
    16:00 +18°C° 0 mm 3 mps 758 mmHg 27%
    17:00 +18°C° 0 mm 2 mps 758 mmHg 28%
    18:00 +16°C° 0 mm 2 mps 758 mmHg 32%
    19:00 +14°C° 0 mm 2 mps 758 mmHg 35%
    20:00 +12°C° 0 mm 2 mps 759 mmHg 39%
    21:00 +12°C° 0 mm 1 mps 759 mmHg 40%
    22:00 +11°C° 0 mm 1 mps 759 mmHg 42%
    23:00 +11°C° 0 mm 1 mps 759 mmHg 44%
    Show more